SCP
0 0 0 0 0 0 0 0 -0 -0 0 0 0 0 0 0 0 0 0 0 0 0 0 0 0 0 0 0 0 0 0 0 0 0 0 0 0 0 0 0 0 0 0
0 0 0 0 0 0 0 0 0 -0 0 0 0 0 0 0 0 0 0 0 0 0 0 0 0 0 0 0 0 0 0 0 0 0 0 0 0 0 0 0 0 0 0
0 0 0 0 0 0 0 0 0 0 0 0 0 0 0 0 0 0 0 0 0 0 0 0 0 0 0 0 0 0 0 0 0 0 0 0 0 0 0 0 0 0 0
0 0 0 0 0 0 0 0 0 0 0 0 0 0 0 0 0 0 0 0 0 0 0 0 0 0 0 0 0 0 0 0 0 0 0 0 0 0 0 0 0 0 0
0 0 0 0 0 0 0 0 0 0 0 0 0 0 0 0 0 0 0 0 0 0 0 0 0 0 0 0 0 0 0 0 0 0 0 0 0 0 0 0 0 0 0
0 0 0 0 0 0 0 0 0 0 0 0 0 0 0 0 0 0 0 0 0 0 0 0 0 0 0 0 0 0 0 0 0 0 0 0 0 0 0 0 0 0 0
0 0 0 0 0 0 0 0 0 0 0 0 0 0 0 0 0 0 0 0 0 0 0 0 0 0 0 0 0 0 0 0 0 0 0 0 0 0 0 0 0 0 0
0 0 0 0 0 0 0 0 0 0 0 0 0 0 0 0 0 0 0 0 0 0 0 0 0 0 0 0 0 0 0 0 0 0 0 0 0 0 0 0 0 0 0
0 0 0 0 0 0 0 0 0 0 0 0 0 0 0 0 0 0 0 0 0 0 0 0 0 0 0 0 0 0 0 0 0 0 0 0 0 0 0 0 0 0 0
0 0 0 0 0 0 0 0 0 0 0 0 0 0 0 0 0 0 0 0 0 0 0 0 0 0 0 0 0 0 0 0 0 0 0 0 0 0 0 0 0 0 0
0 0 0 0 0 0 0 0 0 0 0 0 0 0 0 0 0 0 0 0 0 0 0 0 0 0 0 0 0 0 0 0 0 0 0 0 0 0 0 0 0 0 0
0 0 0 0 0 0 0 0 0 0 0 0 0 0 0 0 0 0 0 0 0 0 0 0 0 0 0 0 0 0 0 0 0 0 0 0 0 0 0 0 0 0 0
0 0 0 0 0 0 0 0 0 0 0 0 0 0 0 0 0 0 0 0 0 0 0 0 0 0 0 0 0 0 0 0 0 0 0 0 0 0 0 0 0 0 0
0 0 0 0 0 0 0 0 0 0 0 0 0 0 0 0 0 0 0 0 0 0 0 0 0 0 0 0 0 0 0 0 0 0 0 0 0 0 0 0 0 0 0
0 0 0 0 0 0 0 0 0 0 0 0 0 0 0 0 0 0 0 0 0 0 0 0 0 0 0 0 0 0 0 0 0 0 0 0 0 0 0 0 0 0 0
0 0 0 0 0 0 0 0 0 0 0 0 0 0 0 0 0 0 0 0 0 0 0 0 0 0 0 0 0 0 0 0 0 0 0 0 0 0 0 0 0 0 0
0 0 0 0 0 0 0 0 0 0 0 0 0 0 0 0 0 0 0 0 0 0 0 0 0 0 0 0 0 0 0 0 0 0 0 0 0 0 0 0 0 0 0
0 0 0 0 0 0 0 0 0 0 0 0 0 0 0 0 0 0 0 0 0 0 0 0 0 0 0 0 0 0 0 0 0 0 0 0 0 0 0 0 0 0 0
0 0 0 0 0 0 0 0 0 0 0 0 0 0 0 0 0 0 0 0 0 0 0 0 0 0 0 0 0 0 0 0 0 0 0 0 0 0 0 0 0 0 0
0 0 0 0 0 0 0 0 0 0 0 0 0 0 0 0 0 0 0 0 0 0 0 0 0 0 0 0 0 0 0 0 0 0 0 0 0 0 0 0 0 0 0
0 0 0 0 0 0 0 0 0 0 0 0 0 0 0 0 0 0 0 0 0 0 0 0 0 0 0 0 0 0 0 0 0 0 0 0 0 0 0 0 0 0 0
0 0 0 0 0 0 0 0 0 0 0 0 0 0 0 0 0 0 0 0 0 0 0 0 0 0 0 0 0 0 0 0 0 0 0 0 0 0 0 0 0 0 0
0 0 0 0 0 0 0 0 0 0 0 0 0 0 0 0 0 0 0 0 0 0 0 0 0 0 0 0 0 0 0 0 0 0 0 0 0 0 0 0 0 0 0
0 0 0 0 0 0 0 0 0 0 0 0 0 0 0 0 0 0 0 0 0 0 0 0 0 0 0 0 0 0 0 0 0 0 0 0 0 0 0 0 0 0 0
0 0 0 0 0 0 0 0 0 0 0 0 0 0 0 0 0 0 0 0 0 0 0 0 0 0 0 0 0 0 0 0 0 0 0 0 0 0 0 0 0 0 0
0 0 0 0 0 0 0 0 0 0 0 0 0 0 0 0 0 0 0 0 0 0 0 0 0 0 0 0 0 0 0 0 0 0 0 0 0 0 0 0 0 0 0
Wind_Speed
5 5 5 5 6 6 5 6 6 6 7 7 7 6 6 5 4 4 4 5 5 5 4 5 5 4 3 3 3 3 3 3 4 3 2 2 2 3 2 2 2 2 2
5 5 6 6 6 6 6 6 7 7 7 7 7 7 6 6 5 5 5 5 6 6 6 6 6 4 5 4 3 4 4 3 3 4 3 2 3 3 2 2 2 2 2
5 5 6 6 6 6 7 7 7 7 7 7 7 7 6 6 6 6 6 6 7 7 6 6 6 6 6 4 4 4 4 4 3 4 4 3 2 2 2 2 2 2 2
5 5 6 6 6 7 7 7 7 7 7 7 7 7 6 6 6 6 6 6 6 7 6 6 6 7 7 6 5 5 4 4 4 4 3 3 2 2 2 2 2 2 2
5 5 6 6 7 7 6 7 7 7 8 8 7 6 6 6 6 7 5 6 6 6 6 6 7 8 9 8 6 5 5 4 4 4 4 3 3 3 3 3 3 2 2
5 5 6 6 6 6 7 7 7 8 8 7 6 6 7 7 11 13 9 5 5 6 6 6 6 7 9 10 10 10 9 7 6 5 4 5 5 4 3 3 3 2 3
6 6 6 7 7 7 8 8 7 7 7 7 6 6 7 8 13 13 11 7 5 5 6 6 6 6 8 6 8 9 9 10 10 7 7 7 6 5 5 5 5 4 4
6 7 7 7 8 8 7 7 7 6 6 6 7 7 7 9 14 13 12 7 5 5 6 6 7 6 7 7 7 7 7 7 8 7 7 7 7 6 7 6 5 3 1
7 7 7 7 8 8 8 7 6 6 7 7 7 7 7 8 13 14 12 5 4 5 6 6 7 7 9 10 7 7 6 6 8 9 9 9 9 8 6 4 4 4 3
8 8 8 7 8 8 8 7 6 6 7 7 8 6 7 7 12 14 13 4 4 5 5 5 8 9 10 10 7 6 7 6 5 5 6 7 6 7 8 7 6 5 3
9 8 8 8 7 8 7 7 6 7 7 7 8 7 6 8 11 14 13 5 5 5 5 4 5 9 10 10 9 6 8 7 5 5 5 4 4 4 5 5 5 5 5
9 9 9 8 7 7 7 7 7 6 7 7 7 7 5 6 9 11 13 11 9 6 5 4 5 9 10 10 7 7 9 7 4 4 4 4 4 4 3 3 3 3 3
9 8 8 9 7 7 7 7 6 5 5 6 6 6 6 6 7 12 13 13 11 6 5 7 8 10 9 7 7 7 5 4 4 4 4 4 3 3 3 2 2 1 1
9 9 8 8 7 7 6 6 6 5 5 6 6 6 6 6 6 6 6 6 8 6 5 6 8 8 7 7 5 4 3 3 4 4 3 2 2 3 3 3 3 2 2
9 8 8 7 7 7 6 6 7 5 7 7 6 6 6 6 8 12 9 6 5 5 4 3 3 3 3 3 2 2 2 2 2 2 2 2 2 2 2 2 3 2 3
9 8 7 6 6 6 6 7 10 11 13 14 13 11 9 11 14 14 13 12 10 8 5 3 3 3 3 3 2 2 2 2 2 2 2 2 2 2 2 2 3 3 3
8 8 7 7 7 7 7 7 8 10 12 13 14 14 14 15 14 14 13 11 10 8 4 3 3 3 3 2 2 2 2 2 2 2 2 2 2 2 3 3 3 3 3
8 9 9 6 6 6 7 7 7 8 8 7 10 13 15 14 14 13 12 9 5 4 3 3 3 3 2 2 2 2 2 1 1 1 2 2 2 2 2 3 3 4 3
7 6 6 6 6 6 7 6 6 7 7 7 7 8 12 13 12 11 10 5 4 4 3 3 3 3 3 2 2 2 2 1 1 1 1 2 2 2 2 2 3 4 3
6 11 10 7 6 6 6 6 6 6 6 6 6 7 7 7 6 6 5 4 4 4 3 3 3 2 2 2 2 2 2 1 1 1 2 2 2 2 2 3 3 3 3
6 8 12 8 6 6 6 6 6 6 6 6 6 8 11 6 5 6 5 4 4 4 3 3 3 3 2 2 2 2 2 2 1 1 2 2 1 1 2 2 2 2 3
6 6 6 6 6 6 6 6 6 6 7 7 6 7 12 6 5 5 5 5 4 4 3 3 3 2 2 2 2 2 2 2 2 1 2 1 1 1 1 2 2 2 3
6 6 6 6 6 9 8 6 6 6 6 6 7 6 6 5 5 5 5 5 4 4 3 3 3 3 3 2 2 2 2 2 2 2 2 2 1 1 2 2 2 3 3
6 6 6 6 6 6 6 6 6 6 6 6 6 6 6 6 6 6 5 4 4 4 4 3 3 4 5 4 3 3 2 2 2 2 2 2 2 2 2 2 2 3 3
5 6 6 6 6 6 6 6 6 6 6 6 6 6 6 6 5 5 5 4 5 4 4 4 3 3 4 5 5 4 4 4 3 2 1 2 2 2 2 2 2 2 3
5 6 6 5 5 5 5 6 6 6 6 6 5 5 5 5 5 5 5 5 5 5 5 4 4 5 5 4 5 5 5 4 3 3 1 1 2 2 3 2 3 3 3
Wind_Direction
319 317 317 315 315 315 313 313 309 306 305 304 298 294 293 289 279 269 266 258 247 250 254 251 256 260 259 260 256 254 256 247 253 270 281 279 260 247 251 247 223 217 221
316 314 314 315 316 315 314 313 310 306 306 305 298 294 289 290 285 275 268 265 251 244 244 245 249 250 249 251 250 250 253 250 244 255 269 264 259 237 229 236 249 245 221
312 312 311 312 314 314 312 312 311 308 308 306 304 295 290 289 286 280 270 259 256 248 242 240 242 240 244 244 248 248 251 255 246 237 248 253 260 235 223 243 245 249 252
311 308 308 309 309 308 308 311 311 310 306 303 302 299 294 291 288 281 276 266 260 255 247 242 240 236 238 237 240 242 245 249 248 231 234 239 248 234 209 214 236 239 250
306 304 303 306 305 306 310 311 310 309 305 300 300 303 299 293 287 283 277 274 265 260 251 246 243 241 243 241 239 234 232 235 240 231 227 231 228 213 218 218 225 225 250
311 304 303 305 305 307 307 307 307 306 303 301 303 303 301 299 300 298 291 281 276 269 264 256 252 247 245 247 245 243 235 231 231 232 231 223 225 227 226 218 207 214 246
315 313 312 309 308 308 308 309 305 303 303 304 303 301 298 301 303 301 295 291 276 268 264 259 257 253 252 241 244 247 244 243 239 234 233 230 223 220 215 217 216 219 236
313 311 312 314 313 312 307 304 302 301 301 301 301 300 298 300 306 308 301 293 280 276 271 262 253 247 245 243 235 235 237 240 240 236 233 234 230 217 213 216 218 220 248
316 315 316 316 313 312 307 304 302 301 299 298 300 299 299 301 305 307 301 288 281 280 277 272 264 248 247 252 246 236 241 249 254 251 249 245 240 227 216 199 202 200 227
317 315 315 314 310 307 304 300 298 298 297 299 297 296 297 300 304 306 303 288 280 280 278 275 275 270 257 251 242 236 240 243 242 248 250 244 235 219 217 210 203 202 210
316 315 313 310 305 301 301 302 301 299 300 300 298 298 298 301 306 306 304 290 278 278 277 278 275 278 271 260 257 245 246 248 238 235 236 230 223 217 215 214 210 202 203
317 315 314 313 310 310 308 308 307 303 302 301 301 303 302 302 305 304 303 297 292 281 275 275 280 283 279 270 262 261 260 257 237 229 225 221 221 217 209 202 206 209 209
318 314 313 313 311 308 307 308 307 306 303 302 303 305 308 308 305 306 306 303 296 288 280 279 285 286 282 273 266 269 260 240 231 229 227 227 224 210 193 178 173 165 149
318 316 316 317 312 310 307 305 303 303 301 301 303 304 305 307 308 308 302 298 296 292 289 285 286 286 279 275 275 269 252 234 228 230 231 229 223 202 193 183 187 180 178
317 316 317 316 314 314 311 306 303 293 298 302 302 301 303 305 308 312 313 307 300 293 299 288 277 279 269 265 256 250 242 230 238 231 218 217 218 210 204 189 186 185 190
317 318 316 314 313 312 311 312 311 308 310 309 309 308 304 305 311 314 315 313 312 306 299 283 278 276 274 273 272 265 250 230 224 218 209 207 213 209 209 200 184 184 190
312 313 312 314 315 314 314 314 315 318 318 317 317 317 315 315 316 316 317 315 316 314 296 285 282 279 278 275 274 273 265 242 220 217 211 206 210 208 197 190 187 187 190
312 310 311 309 312 312 311 310 311 314 318 318 318 319 321 321 321 321 320 318 314 312 302 296 291 288 285 281 275 272 268 253 227 220 215 210 211 211 202 196 196 193 190
312 309 307 306 307 308 308 308 309 309 310 313 316 319 323 324 325 327 326 324 317 309 303 296 296 298 298 293 287 279 267 254 246 230 220 216 210 204 206 203 200 194 190
309 312 316 311 310 311 313 314 313 312 313 315 317 318 323 327 328 328 326 322 318 312 306 299 300 303 304 300 299 298 288 273 252 237 229 221 213 203 200 198 191 185 188
308 310 315 315 311 310 311 311 312 314 314 314 313 315 321 323 320 320 320 317 315 310 308 304 302 304 303 301 300 302 297 281 263 247 239 229 212 203 205 196 181 175 174
307 307 308 308 308 309 310 312 313 311 312 312 313 317 323 325 320 318 319 318 320 318 314 310 307 306 305 302 299 294 293 292 275 249 240 232 214 199 196 189 173 165 167
308 308 309 309 308 312 316 314 313 313 313 314 315 318 321 320 319 320 321 322 323 322 323 323 319 315 319 316 306 294 284 279 274 253 230 219 209 193 183 181 170 162 164
307 306 306 308 309 308 310 312 313 313 314 313 314 315 316 317 317 318 319 319 321 320 319 318 314 311 315 316 308 303 297 296 288 263 234 209 198 188 173 167 170 170 168
308 306 306 306 307 308 310 311 312 313 313 312 312 313 314 315 315 317 319 318 318 316 314 311 306 307 311 311 309 306 305 308 311 299 244 201 186 180 168 164 162 158 159
311 310 308 307 307 307 308 309 311 312 310 308 309 310 311 311 311 313 315 317 317 314 312 310 308 309 309 309 310 311 309 306 307 305 276 196 178 174 164 160 160 157 156